Home   Weather   Fushun   Past weeks

Flag for China Past Weather in Fushun, Liaoning, China — Yesterday and Last 2 Weeks

Now
41 °F

Sunny.


Feels Like: 39 °F
Forecast: 46 / 82 °F
Wind: 3 mph from Southeast

Location: Shenyang / Taoxian

Current Time: Apr 29, 2017 at 6:03:38 am

Latest Report: Apr 29, 2017 at 5:30 am


Visibility: 10 mi

Pressure: 29.59 "Hg

Humidity: 76%

Dew Point: 34 °F

Location of FushunLocation

Past Weather in Fushun — Graph

°F

Fushun Temperature Yesterday

Maximum temperature yesterday: 72 °F (at 11:30 am)
Minimum temperature yesterday: 45 °F (at 1:30 am)
Average temperature yesterday: 58 °F

High & Low Weather Summary for the Past Weeks

 TemperatureHumidityPressure
High79 °F (Apr 15, 1:30 pm)94% (Apr 18, 1:30 am)30.09 "Hg (Apr 18, 1:30 am)
Low36 °F (Apr 21, 4:30 am)12% (Apr 22, 2:30 pm)29.33 "Hg (Apr 18, 6:00 am)
Average55 °F50%29.77 "Hg
* Reported Apr 14 5:00 am — Apr 29 5:00 am, Fushun, Weather by CustomWeather, © 2017

Note: Actual official high and low records may vary slightly from our data, if they occured in-between our weather recording intervals... More about our weather records

Advertising

Fushun Weather History for the Previous 24 Hours

Scroll right to see more
 ConditionsComfort  
Time TempWeatherWind HumidityBarometerVisibility
5:00 am
Sat, Apr 29
39 °FSunny.No wind75%29.59 "Hg10 mi
4:30 am41 °FClear.1 mph76%29.59 "Hg10 mi
4:00 am43 °FClear.1 mph66%29.59 "Hg10 mi
3:30 am43 °FClear.1 mph61%29.59 "Hg10 mi
3:00 am48 °FClear.6 mph54%29.59 "Hg10 mi
2:30 am48 °FClear.6 mph54%29.59 "Hg10 mi
2:00 am48 °FClear.6 mph54%29.59 "Hg10 mi
1:30 am50 °FClear.6 mph50%29.59 "Hg10 mi
1:00 am50 °FClear.3 mph50%29.62 "Hg10 mi
12:30 am50 °FClear.6 mph54%29.62 "Hg10 mi
12:00 am50 °FClear.3 mph50%29.62 "Hg10 mi
11:30 pm
Fri, Apr 28
50 °FClear.3 mph54%29.62 "Hg10 mi
11:00 pm52 °FClear.3 mph47%29.62 "Hg10 mi
10:30 pm50 °FClear.3 mph50%29.62 "Hg10 mi
10:00 pm54 °FClear.3 mph44%29.62 "Hg10 mi
9:30 pm52 °FClear.1 mph50%29.62 "Hg10 mi
9:00 pm52 °FClear.1 mph50%29.62 "Hg10 mi
8:30 pm52 °FPassing clouds.3 mph50%29.59 "HgN/A
8:00 pm55 °FClear.1 mph44%29.59 "Hg10 mi
7:30 pm57 °FClear.1 mph39%29.56 "Hg10 mi
7:00 pm57 °FPassing clouds.No wind39%29.56 "HgN/A
6:30 pm63 °FPartly sunny.1 mph32%29.53 "HgN/A
6:00 pm64 °FPartly sunny.1 mph28%29.53 "HgN/A
5:30 pm66 °FPartly sunny.3 mph24%29.53 "HgN/A
5:00 pm66 °FPartly sunny.10 mph24%29.56 "HgN/A
4:30 pm66 °FScattered clouds.3 mph21%29.56 "HgN/A
3:30 pm68 °FSunny.8 mph20%29.56 "Hg10 mi
3:00 pm68 °FPassing clouds.8 mph20%29.56 "HgN/A
2:30 pm68 °FPassing clouds.15 mph20%29.59 "HgN/A
2:00 pm70 °FPassing clouds.13 mph17%29.56 "HgN/A
1:30 pm68 °FSunny.8 mph17%29.59 "Hg10 mi
1:00 pm72 °FPassing clouds.10 mph16%29.59 "HgN/A
12:30 pm70 °FPassing clouds.15 mph16%29.59 "HgN/A
12:00 pm70 °FPassing clouds.15 mph17%29.59 "HgN/A
11:30 am72 °FPassing clouds.15 mph16%29.59 "HgN/A
11:00 am70 °FPassing clouds.13 mph18%29.59 "HgN/A
10:30 am70 °FPassing clouds.10 mph21%29.62 "HgN/A
10:00 am66 °FPassing clouds.10 mph21%29.62 "HgN/A
9:30 am66 °FPassing clouds.8 mph21%29.62 "HgN/A
9:00 am63 °FSunny.8 mph24%29.62 "Hg10 mi
8:30 am63 °FPassing clouds.8 mph25%29.62 "HgN/A
8:00 am61 °FSunny.6 mph25%29.62 "Hg10 mi
7:30 am59 °FSunny.1 mph31%29.62 "Hg10 mi
7:00 am55 °FSunny.1 mph41%29.62 "Hg10 mi
6:30 am52 °FSunny.1 mph44%29.62 "Hg10 mi
6:00 am48 °FSunny.3 mph50%29.59 "Hg10 mi
Weather by CustomWeather, © 2017

See weather overviewHow to use our weather pages